• En España
  • Lista de países
  • Para 7 días
  • Temperatura del agua
  • Mapa Satelital
  • El tiempo en el mapa
  • Informadores
  • user-avatar
    Iniciar sesión

    Tiempo cada hora Ondjiwa

    Hoy, 22 Octubre, Lunes

    Tiempo Temperatura Precipitaciones Viento Presión Humedad
    00:00 +27°C° 0.8 mm 3 mps 667 mmHg 54%
    01:00 +26°C° 0.8 mm 3 mps 667 mmHg 57%
    02:00 +25°C° 0.8 mm 3 mps 667 mmHg 60%
    03:00 +25°C° 0.8 mm 3 mps 667 mmHg 62%
    04:00 +24°C° 0.8 mm 3 mps 667 mmHg 65%
    05:00 +23°C° 0.9 mm 4 mps 668 mmHg 66%
    06:00 +23°C° 0.9 mm 4 mps 668 mmHg 66%
    07:00 +23°C° 0.9 mm 4 mps 668 mmHg 67%
    08:00 +25°C° 0.5 mm 5 mps 669 mmHg 63%
    09:00 +26°C° 0.5 mm 5 mps 669 mmHg 59%
    10:00 +27°C° 0.5 mm 6 mps 669 mmHg 55%
    11:00 +26°C° 0.6 mm 5 mps 669 mmHg 56%
    12:00 +26°C° 0.6 mm 5 mps 669 mmHg 57%
    13:00 +26°C° 0.6 mm 5 mps 668 mmHg 58%
    14:00 +26°C° 0.2 mm 5 mps 668 mmHg 58%
    15:00 +26°C° 0.2 mm 5 mps 667 mmHg 59%
    16:00 +26°C° 0.2 mm 5 mps 667 mmHg 59%
    17:00 +25°C° 0 mm 5 mps 667 mmHg 62%
    18:00 +25°C° 0 mm 5 mps 667 mmHg 64%
    19:00 +23°C° 0 mm 5 mps 667 mmHg 67%
    20:00 +23°C° 0.1 mm 4 mps 667 mmHg 68%
    21:00 +24°C° 0.1 mm 3 mps 668 mmHg 70%
    22:00 +23°C° 0.1 mm 2 mps 668 mmHg 71%
    23:00 +23°C° 0.1 mm 2 mps 668 mmHg 73%

    Mañana, 23 Octubre, Martes

    Tiempo Temperatura Precipitaciones Viento Presión Humedad
    00:00 +23°C° 0.1 mm 2 mps 668 mmHg 75%
    01:00 +23°C° 0.1 mm 1 mps 668 mmHg 77%
    02:00 +22°C° 0.2 mm 1 mps 668 mmHg 78%
    03:00 +21°C° 0.2 mm 2 mps 668 mmHg 80%
    04:00 +21°C° 0.2 mm 2 mps 668 mmHg 81%
    05:00 +21°C° 0.1 mm 2 mps 668 mmHg 78%
    06:00 +22°C° 0.1 mm 3 mps 669 mmHg 74%
    07:00 +22°C° 0.1 mm 3 mps 669 mmHg 71%
    08:00 +25°C° 0.1 mm 3 mps 670 mmHg 63%
    09:00 +26°C° 0.1 mm 4 mps 670 mmHg 55%
    10:00 +27°C° 0.1 mm 4 mps 670 mmHg 47%
    11:00 +29°C° 0 mm 3 mps 670 mmHg 43%
    12:00 +30°C° 0 mm 3 mps 669 mmHg 39%
    13:00 +31°C° 0 mm 3 mps 669 mmHg 35%
    14:00 +31°C° 0 mm 3 mps 668 mmHg 34%
    15:00 +31°C° 0 mm 2 mps 668 mmHg 34%
    16:00 +31°C° 0 mm 2 mps 667 mmHg 33%
    17:00 +30°C° 0 mm 2 mps 667 mmHg 37%
    18:00 +29°C° 0 mm 3 mps 668 mmHg 40%
    19:00 +28°C° 0 mm 3 mps 668 mmHg 43%
    20:00 +27°C° 0 mm 3 mps 668 mmHg 47%
    21:00 +27°C° 0 mm 3 mps 669 mmHg 51%
    22:00 +26°C° 0 mm 4 mps 669 mmHg 54%
    23:00 +25°C° 0 mm 4 mps 669 mmHg 57%

    Pasado mañana, 24 Octubre, Miércoles

    Tiempo Temperatura Precipitaciones Viento Presión Humedad
    00:00 +25°C° 0 mm 3 mps 669 mmHg 60%
    01:00 +24°C° 0 mm 3 mps 668 mmHg 62%
    02:00 +24°C° 0.2 mm 3 mps 668 mmHg 64%
    03:00 +23°C° 0.2 mm 2 mps 668 mmHg 65%
    04:00 +23°C° 0.2 mm 2 mps 668 mmHg 67%
    05:00 +23°C° 0.3 mm 2 mps 668 mmHg 66%
    06:00 +23°C° 0.3 mm 2 mps 669 mmHg 66%
    07:00 +22°C° 0.3 mm 3 mps 669 mmHg 66%
    08:00 +25°C° 0.3 mm 3 mps 670 mmHg 61%
    09:00 +26°C° 0.3 mm 4 mps 670 mmHg 56%
    10:00 +27°C° 0.3 mm 4 mps 670 mmHg 51%
    11:00 +28°C° 0 mm 4 mps 670 mmHg 47%
    12:00 +29°C° 0 mm 4 mps 669 mmHg 44%
    13:00 +30°C° 0 mm 4 mps 669 mmHg 40%
    14:00 +30°C° 0 mm 3 mps 668 mmHg 39%
    15:00 +30°C° 0 mm 3 mps 668 mmHg 39%
    16:00 +30°C° 0 mm 3 mps 667 mmHg 39%
    17:00 +29°C° 0 mm 3 mps 667 mmHg 42%
    18:00 +28°C° 0 mm 3 mps 668 mmHg 44%
    19:00 +27°C° 0 mm 3 mps 668 mmHg 47%
    20:00 +26°C° 0 mm 3 mps 668 mmHg 48%
    21:00 +26°C° 0 mm 3 mps 668 mmHg 48%
    22:00 +25°C° 0 mm 4 mps 669 mmHg 49%
    23:00 +25°C° 0 mm 3 mps 668 mmHg 49%

    25 Octubre, Jueves

    Tiempo Temperatura Precipitaciones Viento Presión Humedad
    00:00 +25°C° 0 mm 3 mps 668 mmHg 50%
    01:00 +24°C° 0 mm 3 mps 668 mmHg 50%
    02:00 +24°C° 0.1 mm 3 mps 668 mmHg 52%
    03:00 +24°C° 0.1 mm 3 mps 668 mmHg 53%
    04:00 +22°C° 0.1 mm 3 mps 668 mmHg 54%
    05:00 +22°C° 0 mm 4 mps 668 mmHg 55%
    06:00 +22°C° 0 mm 5 mps 668 mmHg 56%
    07:00 +23°C° 0 mm 6 mps 669 mmHg 57%
    08:00 +24°C° 0 mm 6 mps 669 mmHg 53%
    09:00 +26°C° 0 mm 6 mps 669 mmHg 49%
    10:00 +27°C° 0 mm 6 mps 670 mmHg 45%
    11:00 +28°C° 0 mm 5 mps 669 mmHg 42%
    12:00 +29°C° 0 mm 5 mps 669 mmHg 40%
    13:00 +30°C° 0 mm 4 mps 668 mmHg 37%
    14:00 +29°C° 0 mm 4 mps 668 mmHg 39%
    15:00 +29°C° 0 mm 4 mps 668 mmHg 41%
    16:00 +28°C° 0 mm 4 mps 667 mmHg 42%
    17:00 +27°C° 0 mm 4 mps 668 mmHg 45%
    18:00 +26°C° 0 mm 5 mps 668 mmHg 47%
    19:00 +25°C° 0 mm 5 mps 669 mmHg 50%
    20:00 +25°C° 0 mm 5 mps 669 mmHg 51%
    21:00 +23°C° 0 mm 4 mps 670 mmHg 53%
    22:00 +23°C° 0 mm 4 mps 670 mmHg 54%
    23:00 +22°C° 0.1 mm 4 mps 670 mmHg 57%

    26 Octubre, Viernes

    Tiempo Temperatura Precipitaciones Viento Presión Humedad
    00:00 +22°C° 0.1 mm 4 mps 669 mmHg 59%
    01:00 +21°C° 0.1 mm 4 mps 669 mmHg 62%
    02:00 +21°C° 0.1 mm 4 mps 669 mmHg 64%
    03:00 +21°C° 0.1 mm 4 mps 669 mmHg 66%
    04:00 +20°C° 0.1 mm 4 mps 669 mmHg 68%
    05:00 +21°C° 0.1 mm 4 mps 669 mmHg 67%
    06:00 +21°C° 0.1 mm 5 mps 670 mmHg 66%
    07:00 +21°C° 0.1 mm 5 mps 670 mmHg 64%
    08:00 +22°C° 0 mm 5 mps 670 mmHg 57%
    09:00 +23°C° 0 mm 6 mps 671 mmHg 51%
    10:00 +26°C° 0 mm 6 mps 671 mmHg 44%
    11:00 +27°C° 0 mm 6 mps 671 mmHg 39%
    12:00 +28°C° 0 mm 6 mps 670 mmHg 35%
    13:00 +30°C° 0 mm 6 mps 670 mmHg 30%
    14:00 +30°C° 0 mm 5 mps 670 mmHg 31%
    15:00 +30°C° 0 mm 5 mps 669 mmHg 31%
    16:00 +32°C° 0 mm 4 mps 669 mmHg 31%
    17:00 +30°C° 0 mm 4 mps 669 mmHg 33%
    18:00 +29°C° 0 mm 4 mps 670 mmHg 35%
    19:00 +27°C° 0 mm 4 mps 670 mmHg 37%
    20:00 +26°C° 0 mm 4 mps 670 mmHg 38%
    21:00 +25°C° 0 mm 3 mps 670 mmHg 39%
    22:00 +24°C° 0 mm 3 mps 670 mmHg 40%
    23:00 +22°C° 0 mm 3 mps 669 mmHg 43%

    27 Octubre, Sábado

    Tiempo Temperatura Precipitaciones Viento Presión Humedad
    00:00 +23°C° 0 mm 2 mps 669 mmHg 47%
    01:00 +21°C° 0 mm 2 mps 669 mmHg 50%
    02:00 +21°C° 0 mm 2 mps 668 mmHg 52%
    03:00 +20°C° 0 mm 2 mps 668 mmHg 54%
    04:00 +21°C° 0 mm 1 mps 668 mmHg 56%
    05:00 +22°C° 0 mm 1 mps 668 mmHg 52%
    06:00 +23°C° 0 mm 1 mps 669 mmHg 48%
    07:00 +24°C° 0 mm 2 mps 670 mmHg 44%
    08:00 +27°C° 0 mm 2 mps 670 mmHg 37%
    09:00 +30°C° 0 mm 2 mps 670 mmHg 30%
    10:00 +33°C° 0 mm 3 mps 670 mmHg 22%
    11:00 +35°C° 0 mm 2 mps 670 mmHg 20%
    12:00 +36°C° 0 mm 2 mps 669 mmHg 18%
    13:00 +38°C° 0 mm 2 mps 669 mmHg 17%
    14:00 +37°C° 0 mm 1 mps 668 mmHg 17%
    15:00 +36°C° 0 mm 1 mps 668 mmHg 17%
    16:00 +34°C° 0 mm 0 mps 667 mmHg 17%
    17:00 +35°C° 0 mm 1 mps 667 mmHg 18%
    18:00 +34°C° 0 mm 1 mps 668 mmHg 19%
    19:00 +33°C° 0 mm 1 mps 668 mmHg 20%
    20:00 +32°C° 0 mm 1 mps 668 mmHg 22%
    21:00 +31°C° 0 mm 1 mps 668 mmHg 23%
    22:00 +30°C° 0 mm 2 mps 668 mmHg 24%
    23:00 +30°C° 0 mm 2 mps 668 mmHg 25%

    28 Octubre, Domingo

    Tiempo Temperatura Precipitaciones Viento Presión Humedad
    00:00 +29°C° 0 mm 2 mps 667 mmHg 25%
    01:00 +29°C° 0 mm 2 mps 667 mmHg 26%
    02:00 +28°C° 0 mm 2 mps 667 mmHg 27%
    03:00 +28°C° 0 mm 3 mps 667 mmHg 27%
    04:00 +28°C° 0 mm 3 mps 667 mmHg 28%
    05:00 +28°C° 0 mm 3 mps 668 mmHg 26%
    06:00 +29°C° 0 mm 3 mps 668 mmHg 25%
    07:00 +29°C° 0 mm 4 mps 669 mmHg 23%
    08:00 +33°C° 0 mm 5 mps 669 mmHg 20%
    09:00 +35°C° 0 mm 6 mps 669 mmHg 16%
    10:00 +38°C° 0 mm 6 mps 670 mmHg 12%
    11:00 +39°C° 0 mm 6 mps 669 mmHg 12%
    12:00 +41°C° 0 mm 5 mps 669 mmHg 11%
    13:00 +42°C° 0 mm 5 mps 668 mmHg 11%
    14:00 +41°C° 0 mm 5 mps 668 mmHg 11%
    15:00 +41°C° 0 mm 4 mps 667 mmHg 11%
    16:00 +41°C° 0 mm 4 mps 667 mmHg 11%
    17:00 +38°C° 0 mm 4 mps 667 mmHg 12%
    18:00 +36°C° 0 mm 3 mps 667 mmHg 14%
    19:00 +35°C° 0 mm 3 mps 667 mmHg 16%
    20:00 +34°C° 0 mm 3 mps 667 mmHg 16%
    21:00 +33°C° 0 mm 3 mps 667 mmHg 17%
    22:00 +31°C° 0 mm 3 mps 667 mmHg 18%
    23:00 +30°C° 0 mm 3 mps 667 mmHg 19%
    Mostrar más